Theta_e
300 300 300 300 300 300 301 301 301 301 301 301 301 301 301 300 300 301 300 303 302 302 303 303 303 305 306 307 308 308 310 313 319 318 319 318 320 320 323 327 328 327 328 326 328 328 332 329 328 333 336 332 331 334
299 299 300 300 300 300 300 301 301 302 301 301 301 301 301 300 301 300 300 300 303 303 303 304 303 303 303 304 305 306 309 308 312 317 320 321 323 322 325 323 325 330 330 331 332 329 338 328 334 331 330 334 330 331
300 299 299 299 299 299 299 299 300 300 301 301 301 301 301 300 301 301 300 300 300 301 301 302 303 303 303 302 304 305 306 308 309 307 311 317 327 324 323 324 330 329 326 331 330 336 331 329 329 328 327 329 330 331
302 302 301 301 301 301 301 301 301 301 301 301 301 301 300 300 300 300 300 300 299 301 301 303 303 304 305 304 304 304 305 306 306 307 311 314 320 324 328 323 325 330 331 337 335 335 336 335 333 331 329 328 330 331
301 302 301 301 301 301 301 301 301 301 302 301 302 302 302 302 302 300 300 300 300 300 302 303 303 308 306 306 307 306 305 305 306 309 313 320 321 326 328 327 326 325 336 334 334 340 340 339 332 331 332 332 333 332
301 301 301 301 301 301 301 301 301 302 302 302 303 303 304 303 303 302 302 305 304 303 302 306 306 308 309 307 308 306 306 306 307 310 314 320 322 326 331 333 330 333 333 333 336 333 333 332 334 334 333 332 334 337
301 301 301 301 301 302 302 302 302 302 303 304 306 305 305 304 304 302 302 303 304 304 303 307 308 309 311 310 308 308 308 308 309 313 318 322 325 325 330 332 333 333 333 334 334 335 340 339 339 335 334 335 337 340
301 301 301 301 302 302 302 303 303 304 306 307 307 306 306 307 306 304 305 305 303 304 305 307 310 312 311 310 310 311 314 312 314 320 324 325 324 327 334 333 332 332 333 336 335 337 337 338 337 337 337 337 338 339
301 301 302 302 302 303 303 304 304 306 307 308 308 307 308 307 306 307 307 308 305 304 305 308 313 316 313 313 314 315 313 317 317 324 326 326 329 336 334 333 332 332 331 331 336 337 338 339 338 336 337 337 337 335
301 301 301 302 303 304 304 304 306 308 309 309 308 308 308 308 307 307 307 306 304 304 304 308 309 314 314 317 317 317 314 319 322 323 321 328 331 330 330 330 330 331 332 335 337 337 338 337 336 335 335 335 335 335
303 302 302 302 302 304 304 305 307 308 310 310 310 309 309 309 308 308 306 307 307 309 308 309 312 314 315 319 320 316 321 320 320 323 326 328 331 330 329 331 330 332 334 334 334 336 337 336 335 333 333 333 333 332
308 307 307 307 305 306 307 307 307 309 310 309 310 310 309 309 309 309 310 311 313 313 310 313 312 314 316 315 317 317 321 320 322 322 328 327 329 327 326 330 331 332 333 334 333 333 333 333 332 331 330 330 329 328
309 308 308 309 308 308 308 307 309 310 310 310 310 311 310 311 312 308 313 310 310 311 312 310 317 317 316 315 317 318 321 322 320 323 324 328 324 326 327 330 329 330 331 333 331 331 332 330 330 330 326 326 326 328
311 310 309 309 308 308 308 308 311 311 310 310 311 310 313 314 312 312 312 313 313 314 316 315 315 317 317 319 319 321 319 320 325 323 326 326 324 326 327 327 329 329 329 329 329 329 328 329 328 327 328 329 331 329
313 311 310 310 309 309 308 311 311 311 311 310 310 312 312 312 311 312 313 313 314 315 316 317 316 317 319 321 320 319 321 323 324 326 325 324 323 326 326 327 328 327 327 328 328 330 331 331 331 330 331 331 330 327
314 313 311 309 309 309 309 311 310 310 309 309 310 311 312 312 312 312 313 315 315 316 316 315 317 318 319 320 321 323 322 323 324 322 319 322 324 326 327 325 326 326 326 326 326 328 330 330 330 328 326 323 323 321
315 313 313 310 310 310 309 310 310 310 310 311 311 311 311 311 312 312 313 313 316 316 317 317 318 319 318 320 321 320 319 318 317 319 321 322 325 325 325 324 324 326 326 326 326 326 326 325 324 323 322 321 320 318
315 315 315 313 313 312 312 310 310 312 311 312 310 312 312 313 312 314 315 315 316 316 316 316 316 317 314 318 322 320 320 320 320 319 321 323 325 325 324 324 325 324 325 325 324 324 323 323 323 323 322 321 320 320
316 316 316 315 314 313 313 312 312 312 312 312 313 314 314 314 315 315 315 315 316 316 317 317 318 319 319 318 318 319 319 319 319 319 319 321 322 324 324 324 323 323 323 323 322 321 323 323 323 323 323 321 319 318
316 316 315 315 315 313 313 313 312 313 313 313 314 314 314 313 314 314 315 315 316 316 316 317 316 315 315 318 318 318 317 317 317 317 318 318 319 321 322 323 323 322 323 324 324 324 324 324 323 321 319 317 316 316
316 317 315 314 315 315 314 314 314 313 314 314 314 314 314 314 314 314 314 315 316 314 317 315 315 315 318 318 319 318 316 315 316 315 315 317 316 315 317 318 320 320 320 320 318 316 315 315 314 314 313 313 313 313
316 316 316 316 315 314 315 315 314 314 314 314 314 314 314 315 314 313 314 315 315 314 314 314 315 315 316 316 317 317 318 318 318 318 315 315 316 316 316 316 315 314 314 313 313 313 313 312 313 313 312 312 312 311
316 316 317 317 316 316 315 316 316 315 317 316 315 316 316 316 313 314 316 314 313 313 313 315 315 315 315 316 316 316 316 316 316 317 317 318 318 317 316 317 317 316 315 315 316 314 313 313 313 313 313 313 314 314
317 317 317 317 317 317 317 317 316 315 314 316 317 316 317 315 313 314 317 315 313 313 313 314 314 314 314 314 314 314 314 315 315 315 316 317 317 316 316 316 317 317 317 317 317 317 317 317 316 315 315 316 315 315
317 317 317 317 317 317 317 317 317 316 316 316 316 316 316 313 316 315 316 315 313 313 313 313 314 314 314 314 312 312 312 312 313 314 314 314 314 314 315 315 315 315 316 316 316 316 315 315 315 315 315 315 315 316
313 317 317 318 317 315 313 314 315 315 316 317 317 315 314 315 315 316 316 315 314 313 313 313 313 314 314 313 313 312 312 312 312 314 314 313 313 313 314 314 315 314 314 314 314 315 315 315 315 315 315 315 314 313
317 319 316 315 315 314 313 313 312 313 315 315 315 315 316 316 316 316 314 314 314 313 313 313 313 313 312 313 313 313 312 312 312 313 313 313 313 313 313 312 312 312 312 312 312 312 312 311 311 311 310 310 311 311
320 320 320 317 315 315 316 315 315 315 314 312 314 316 316 315 316 314 314 314 314 314 314 313 314 314 313 312 312 311 312 312 311 311 312 312 311 311 311 311 311 311 311 311 310 310 310 310 310 310 310 310 310 310
320 319 318 319 317 315 314 315 315 314 313 313 315 315 315 314 314 314 314 313 313 313 313 313 313 312 311 311 311 311 310 309 308 309 310 309 309 309 309 309 309 309 309 309 309 309 309 309 309 309 309 309 309 309
319 319 319 319 319 318 317 316 317 317 314 314 314 314 315 315 314 314 314 314 314 313 313 312 311 312 310 309 308 307 307 306 306 306 305 305 304 305 305 304 304 304 304 304 304 305 305 305 305 307 307 307 308 308
320 319 317 318 318 317 318 318 317 315 314 314 315 315 315 315 315 315 315 315 314 313 311 313 312 309 308 307 305 305 304 304 303 303 303 303 302 302 302 302 302 302 302 304 304 305 306 306 307 307 308 307 307 307
318 319 319 319 320 319 318 318 317 317 315 316 316 314 315 315 316 314 314 314 313 312 312 313 312 308 307 306 305 303 303 303 302 301 301 301 301 301 301 300 300 300 301 302 303 304 304 304 305 304 303 303 302 302
316 317 318 318 318 319 316 318 318 319 318 318 317 315 315 315 316 314 311 311 310 311 311 310 308 308 306 306 305 304 304 303 302 301 300 300 300 299 299 298 299 299 300 300 301 302 303 303 303 302 302 301 301 300
Wind_Speed
19 18 18 16 16 16 14 15 14 13 11 10 10 11 10 10 9 9 8 5 10 7 18 18 19 13 8 8 4 9 6 2 3 11 13 9 7 10 8 7 10 9 10 6 5 7 12 9 11 13 12 15 17 20
20 19 18 17 16 15 16 16 14 12 12 12 11 11 10 11 10 11 11 10 9 13 16 18 21 21 20 16 17 6 6 6 5 3 1 2 4 5 9 12 3 10 7 8 11 8 4 13 6 19 18 14 22 30
21 20 19 18 17 16 16 16 15 12 12 13 13 14 14 13 12 13 15 11 12 13 23 17 18 13 19 31 21 8 4 4 4 9 4 2 5 3 9 10 5 6 6 6 6 12 12 10 12 11 13 17 20 25
21 20 19 18 17 16 15 14 14 13 13 12 13 13 14 14 13 14 17 14 9 6 5 7 5 9 6 21 26 32 22 6 12 13 4 3 4 3 2 2 6 2 11 9 6 3 2 11 16 17 16 14 15 21
21 20 20 19 18 17 16 16 16 16 17 17 17 17 17 16 14 15 17 20 18 10 5 14 24 3 17 23 16 19 23 21 13 5 4 3 4 3 2 2 4 5 3 7 5 7 7 5 17 21 15 15 18 25
21 21 20 20 20 19 19 19 19 19 18 19 20 21 20 15 12 13 5 3 5 15 4 3 6 2 5 19 10 15 15 11 8 5 5 5 5 4 3 4 2 3 5 7 2 6 5 4 12 16 18 19 20 22
21 20 20 19 19 19 19 20 22 24 25 26 24 14 12 12 12 8 4 5 3 14 4 4 4 1 11 18 11 10 11 7 8 5 5 4 3 4 3 5 5 7 7 9 12 5 4 10 7 16 17 19 20 19
20 20 19 19 18 19 21 24 27 29 26 24 16 9 7 6 8 11 5 16 14 7 4 3 3 2 12 7 7 12 6 3 6 5 4 4 4 4 4 2 8 7 8 3 10 14 6 8 14 18 19 23 25 25
20 19 19 19 20 21 22 26 30 26 22 18 12 6 6 7 7 5 8 8 13 7 4 3 3 2 6 10 6 5 4 1 5 3 3 3 3 5 2 7 9 9 7 9 3 9 7 12 15 19 22 23 27 30
20 21 21 22 22 24 25 25 28 22 22 13 5 3 3 3 6 8 4 5 8 6 6 3 3 2 2 5 5 7 4 3 3 4 4 4 3 3 3 8 10 9 3 4 7 7 10 13 16 16 17 18 22 28
21 22 23 24 24 26 25 26 24 19 17 9 4 2 6 9 1 4 4 5 6 4 7 6 5 2 2 3 2 2 3 2 3 3 2 2 2 2 9 8 3 6 6 4 4 5 9 13 17 17 17 18 22 28
22 22 23 24 23 23 25 22 19 18 14 7 8 6 5 2 2 3 2 2 4 2 3 3 5 5 1 2 3 2 2 1 3 1 2 2 2 9 11 6 4 7 5 9 10 14 16 17 18 19 20 23 24 27
23 23 23 20 20 21 19 16 15 16 10 5 4 3 4 1 2 2 4 1 3 3 6 6 3 4 3 0 0 1 4 3 0 2 2 1 10 8 7 7 6 8 10 15 17 17 18 20 19 20 24 24 27 31
24 23 18 18 18 17 16 14 13 13 6 5 5 6 5 5 4 4 10 6 5 5 7 7 3 2 2 4 2 3 1 1 4 5 1 3 11 4 3 5 7 11 12 18 20 23 25 26 26 26 29 34 38 34
23 17 17 17 17 15 11 11 12 12 7 6 7 6 4 12 20 22 21 9 6 1 2 3 3 2 1 1 1 2 1 2 2 2 0 8 11 4 4 5 8 13 15 20 21 25 27 29 34 38 36 33 29 28
22 20 21 17 16 15 6 9 11 9 6 6 6 6 15 11 14 21 24 18 15 7 4 5 3 3 3 3 0 5 3 3 4 4 13 11 3 3 3 2 5 12 16 19 21 26 33 37 40 40 35 30 28 26
19 19 20 17 12 19 11 8 7 8 6 6 6 14 20 11 14 20 18 21 13 3 2 0 2 4 3 3 2 2 1 3 13 15 9 3 11 13 13 14 13 17 22 28 29 27 30 31 30 31 31 27 27 27
21 21 26 17 15 9 23 15 6 6 6 6 8 24 23 20 20 22 34 33 18 7 4 2 2 2 2 1 2 4 4 10 14 15 9 12 11 11 15 20 19 18 23 27 26 25 27 30 29 25 21 19 18 18
21 21 22 24 15 11 6 9 8 5 5 10 19 22 19 22 29 33 31 32 28 20 8 6 5 4 3 5 9 17 20 14 13 18 16 11 11 9 12 8 9 15 15 10 15 18 18 15 14 13 14 14 15 17
15 17 20 22 19 5 5 6 7 5 6 10 16 18 17 20 27 27 29 30 23 22 13 6 5 11 11 17 19 18 26 26 23 23 22 16 14 14 15 15 16 15 16 14 12 9 10 15 14 14 13 13 14 15
14 15 16 18 16 10 6 6 6 5 7 8 15 16 13 21 22 25 23 24 15 8 9 11 18 26 26 27 26 25 25 26 24 27 24 21 22 25 24 21 21 20 18 17 19 18 15 12 13 13 12 11 9 9
14 14 13 11 7 5 6 9 4 6 9 7 11 11 10 9 11 17 21 16 10 10 12 17 21 24 26 26 26 25 23 23 22 20 26 25 26 26 26 22 22 21 19 16 14 13 13 12 10 10 10 11 11 11
9 13 6 8 4 6 3 6 5 6 4 8 9 6 7 9 16 16 8 11 12 20 19 19 21 22 23 24 23 24 23 23 24 22 22 20 20 16 12 12 13 12 9 8 7 7 7 8 8 8 8 7 7 6
4 6 5 5 7 3 3 4 3 3 3 4 3 4 5 7 14 10 5 11 21 25 22 19 19 20 22 23 24 22 20 19 19 18 17 12 14 14 13 11 8 4 4 4 3 3 2 3 8 7 7 7 8 8
3 5 4 5 5 4 3 3 3 2 1 2 3 2 4 6 4 5 6 12 21 21 22 21 16 16 16 15 21 24 25 22 19 14 15 16 16 12 9 10 9 8 7 6 4 3 1 2 4 6 7 9 11 11
3 4 3 4 2 2 1 2 2 2 1 1 2 2 2 2 3 4 5 12 15 17 14 16 20 14 12 15 16 18 19 19 17 15 14 14 14 15 11 9 6 6 6 7 4 3 4 5 6 8 9 11 11 12
2 2 4 6 3 2 0 1 1 1 2 2 1 2 2 3 3 4 8 9 10 12 11 14 15 15 16 17 17 18 19 18 15 11 10 9 10 10 10 10 9 8 8 7 8 9 10 10 10 10 10 11 13 15
0 2 2 6 3 2 2 1 2 3 1 1 2 2 2 1 2 4 7 8 8 7 8 10 10 11 12 13 16 17 18 21 16 13 9 9 11 10 11 11 11 12 12 11 11 11 11 11 10 12 14 16 17 18
1 1 1 3 1 2 2 1 2 2 1 1 2 1 1 1 3 3 4 8 10 10 10 10 10 11 13 14 17 20 21 20 19 17 14 12 13 15 15 15 15 15 15 15 14 14 15 16 17 18 19 20 20 22
0 2 0 1 1 1 0 1 3 2 3 3 3 3 3 4 3 1 1 2 3 4 6 8 11 15 15 17 16 16 17 16 16 15 14 14 16 20 21 22 23 23 23 23 22 21 21 19 19 16 16 17 16 16
1 1 2 0 1 1 4 5 2 4 5 5 6 6 7 6 5 5 4 5 4 3 6 14 18 17 17 18 18 17 14 18 18 19 20 21 20 20 22 22 22 20 17 15 14 13 13 12 11 10 9 10 11 11
1 1 2 1 1 3 2 1 3 3 3 4 4 9 10 4 2 4 2 1 4 4 8 14 14 12 14 17 18 17 17 21 24 25 23 19 17 18 20 18 15 14 14 13 12 11 11 11 10 9 9 11 12 12
1 1 1 1 2 1 2 2 0 1 1 2 3 6 9 5 3 4 3 3 2 6 15 16 11 11 13 17 17 16 18 22 25 27 24 17 16 17 17 15 14 12 13 12 11 11 11 11 10 9 10 11 12 12
Wind_Direction
343 343 345 344 342 345 339 338 332 324 317 308 303 300 305 325 321 316 296 302 245 250 273 264 252 254 264 267 288 333 310 192 237 196 201 189 218 204 216 175 172 167 166 182 189 214 248 161 142 200 219 221 234 193
348 345 344 344 342 338 332 331 340 329 324 313 310 310 300 310 308 307 300 273 261 247 261 269 270 261 250 250 256 273 292 302 350 280 278 238 200 182 206 214 178 203 210 186 198 208 219 194 238 212 222 207 203 195
352 349 347 345 340 338 340 339 339 329 319 314 310 303 297 295 297 293 292 285 271 279 291 271 270 287 239 233 219 243 261 288 70 15 316 301 240 176 203 219 192 219 182 199 160 219 225 231 231 246 230 220 216 206
350 350 350 347 347 347 349 350 349 344 339 331 323 315 306 298 289 279 280 282 269 263 275 285 302 302 275 221 223 229 234 255 335 328 285 269 260 212 224 253 230 178 163 178 230 261 217 232 229 218 214 209 196 187
346 347 346 344 344 345 342 341 337 333 328 323 318 312 304 296 289 283 277 275 265 226 286 291 302 285 217 205 212 227 231 250 284 292 244 237 256 245 210 262 235 188 199 195 202 203 209 191 215 203 208 200 185 178
338 340 341 340 340 339 337 336 335 331 324 312 306 300 300 286 274 283 298 271 267 225 258 280 300 169 149 186 228 223 232 220 224 251 255 261 253 252 245 232 120 347 287 256 282 334 242 235 180 192 196 190 180 177
331 334 334 334 337 334 335 334 332 331 329 321 316 303 270 271 243 238 253 266 282 193 241 285 285 255 156 160 177 188 219 214 218 255 242 262 265 241 263 233 21 329 311 264 248 219 218 186 185 177 179 170 169 163
330 333 333 332 333 331 334 334 333 334 331 325 318 294 262 248 262 262 246 247 236 202 241 267 262 218 168 144 171 162 156 228 236 254 270 256 274 232 250 279 327 321 322 284 223 205 258 224 169 164 169 165 156 152
327 328 328 327 327 327 328 332 335 338 335 334 321 276 254 223 208 218 266 232 216 224 293 248 305 66 157 187 150 144 143 242 277 240 256 269 232 232 308 311 314 316 301 282 232 210 201 177 168 164 164 163 161 157
324 325 325 324 325 324 325 326 335 339 339 335 306 261 240 210 236 302 196 173 168 203 225 250 253 258 216 201 144 127 162 186 267 228 274 227 266 290 288 301 296 291 252 161 157 157 164 162 163 161 161 162 158 154
325 324 323 324 324 324 326 329 331 337 341 331 303 283 292 312 137 193 189 213 176 215 208 226 215 273 338 211 148 161 155 177 239 206 253 239 251 353 330 323 318 140 145 259 237 176 158 159 151 150 146 148 151 151
334 334 333 329 326 329 329 333 333 337 330 307 310 309 320 338 9 331 300 225 213 232 309 221 199 200 203 155 229 181 130 234 242 330 254 236 27 345 333 2 87 118 119 105 120 129 127 130 136 137 137 137 143 149
336 334 336 340 342 339 340 344 337 339 341 336 340 343 347 353 349 344 318 292 277 218 205 241 189 174 145 228 28 96 204 181 205 198 253 50 333 332 3 42 92 112 120 118 120 126 132 131 139 147 138 140 139 141
340 342 341 342 351 351 349 349 353 1 7 355 351 1 15 354 344 312 302 288 262 261 354 87 121 237 183 173 150 241 91 237 225 171 150 31 325 327 37 82 103 114 128 123 123 126 127 132 131 135 138 143 146 144
358 0 357 2 7 0 2 12 14 21 20 32 23 4 333 302 301 300 306 279 310 13 126 121 124 185 85 336 345 129 168 300 299 346 61 337 355 14 78 140 132 139 136 128 138 138 137 138 136 133 135 137 138 137
11 13 13 14 25 20 17 29 34 38 34 31 24 324 315 314 336 337 360 14 40 69 69 45 44 33 59 326 293 19 360 336 349 330 327 327 354 100 99 216 158 146 138 135 137 136 137 138 137 136 140 142 145 146
17 12 18 28 38 32 39 46 35 41 37 5 330 328 334 314 334 339 355 2 36 83 63 77 65 44 355 27 63 47 268 272 294 326 323 158 132 134 148 157 145 125 132 129 128 130 135 135 134 132 130 134 137 140
13 17 22 34 39 30 43 40 50 48 25 343 346 343 356 2 356 12 22 26 32 28 16 70 181 126 137 259 3 357 17 40 19 40 73 94 100 111 138 123 129 124 133 136 128 128 135 138 138 136 137 143 153 159
10 17 24 29 34 31 37 33 34 40 357 348 3 9 14 20 33 42 42 41 43 43 31 25 27 6 24 26 2 11 22 42 60 56 68 92 97 111 159 171 152 155 151 135 131 134 134 138 142 148 149 149 151 157
20 27 28 29 29 52 58 31 15 28 7 341 6 9 25 21 32 33 38 40 41 42 39 31 23 4 11 40 53 58 53 59 58 57 57 69 90 104 115 128 134 137 135 140 145 148 155 139 140 149 148 152 165 162
34 35 36 36 39 51 66 37 35 15 342 8 21 38 27 34 22 16 19 28 32 38 30 24 30 54 56 55 55 58 63 67 71 60 56 67 89 87 90 89 95 103 107 112 114 111 110 118 133 135 133 136 146 155
25 30 21 19 36 48 56 29 36 8 33 24 27 25 17 6 353 4 28 33 38 18 17 32 45 46 48 49 52 53 58 60 57 64 70 67 65 72 75 84 90 83 83 87 97 110 122 132 137 134 146 147 156 165
355 2 13 15 50 38 32 20 40 24 21 355 19 17 9 7 12 31 32 30 32 35 50 60 57 56 59 60 57 57 57 58 62 64 67 73 78 80 97 104 115 109 95 98 110 126 139 156 169 160 155 161 188 202
4 18 20 35 27 36 23 28 28 37 37 13 1 12 8 350 20 30 35 26 32 43 51 61 64 62 58 52 48 47 48 49 51 55 61 65 69 73 74 76 79 88 82 80 65 33 19 212 213 219 246 228 235 237
28 17 22 21 23 33 28 15 3 356 63 18 7 17 6 358 18 31 31 16 32 32 39 44 48 55 53 53 56 43 39 36 37 41 44 45 44 44 62 78 74 68 67 65 52 51 82 192 203 225 248 258 263 271
69 24 31 7 4 39 337 350 350 360 345 42 41 358 9 37 24 28 15 15 24 19 29 35 38 43 45 42 38 36 36 34 31 33 43 37 34 39 41 39 35 38 27 12 345 307 292 289 291 293 290 287 287 282
57 44 35 3 312 325 298 337 349 338 24 29 35 37 35 45 18 345 350 22 36 29 35 40 38 38 41 40 38 34 31 24 17 21 22 30 29 24 20 18 15 3 354 348 339 330 320 311 302 293 286 285 288 291
16 36 67 334 331 330 328 44 18 22 43 116 96 43 60 45 22 1 24 37 21 32 37 33 31 36 33 29 23 12 6 7 9 3 2 6 6 357 351 345 332 321 316 315 311 303 298 298 306 305 306 305 299 293
79 324 214 276 356 48 28 46 49 32 63 60 103 130 131 116 7 39 55 52 44 32 26 23 27 21 17 12 6 3 1 0 3 9 11 3 356 347 347 345 341 335 326 317 309 304 300 297 297 297 294 293 292 293
166 11 146 308 296 100 77 342 321 299 191 175 155 145 138 149 150 125 25 353 358 4 19 24 16 3 3 3 5 1 357 356 357 358 352 341 333 327 325 323 320 316 313 310 309 308 306 305 304 303 299 298 297 292
133 93 85 64 291 271 304 297 296 181 190 204 203 193 186 190 211 239 265 306 308 3 49 20 8 358 358 359 359 356 351 346 342 335 326 321 320 321 324 327 330 331 331 331 330 331 332 334 335 338 341 340 333 334
144 147 159 197 249 296 314 271 211 218 215 209 204 200 211 227 246 240 276 123 120 74 359 359 353 0 3 356 351 353 357 358 356 350 344 338 333 332 335 337 340 342 341 340 339 339 341 346 345 355 357 355 352 347
132 132 191 249 269 265 304 348 338 295 273 249 237 230 231 233 255 232 169 145 161 39 20 6 355 6 7 6 2 355 355 356 358 2 358 343 334 335 343 348 352 353 353 353 348 341 337 339 338 341 341 344 347 345